PBO Station Position Time Series. Reference Frame : NAM14
Format Version,1.1.0
4-character ID,WSLR
Station name,Whistler
Begin Date, 1996-09-13
End Date, 2016-11-15
Release Date, 2019-08-30
Reference position, 50.1265387897 North Latitude, -122.9211907358 East Longitude, 909.27124 meters elevation,
Date, North (mm), East (mm), Vertical (mm), North Std. Deviation (mm), East Std. Deviation (mm),              Vertical Std. Deviation (mm), Quality,
1996-09-13,0.00, 0.00, 0.00, 2.80, 2.06, 9.01, repro,
1996-09-14,-2.17, 1.68, -4.77, 2.69, 1.98, 8.84, repro,
1996-09-15,-2.41, 2.77, -1.82, 2.93, 2.07, 9.13, repro,
1996-09-16,-1.08, 0.74, -8.02, 2.90, 2.20, 9.58, repro,
1996-09-17,0.29, 2.69, -10.06, 2.81, 2.03, 8.95, repro,
1996-09-18,0.50, 3.70, -15.78, 2.79, 2.04, 8.90, repro,
1996-09-19,0.39, 1.30, -14.31, 2.80, 2.09, 9.23, repro,
1996-09-20,-0.88, 3.02, -10.12, 2.91, 2.18, 9.38, repro,
1996-09-21,-0.50, 1.97, -9.29, 2.69, 1.98, 8.76, repro,
1996-09-22,0.29, 2.23, -8.75, 2.69, 1.98, 8.53, repro,
1996-09-23,-0.51, 3.11, -16.90, 2.87, 2.18, 9.47, repro,
1996-09-24,0.52, 2.60, -16.33, 2.89, 2.10, 9.07, repro,
1996-09-25,-1.47, 2.48, -12.26, 2.55, 1.89, 8.31, repro,
1996-09-26,-1.84, 1.55, -12.00, 2.59, 1.95, 8.61, repro,
1996-09-27,-1.01, 2.71, -4.80, 2.61, 1.97, 8.73, repro,
1996-09-28,0.33, 2.12, -9.57, 2.70, 1.97, 8.79, repro,
1996-09-29,-0.41, 2.78, -12.62, 2.81, 2.05, 8.73, repro,
1996-09-30,2.28, 3.93, -4.21, 2.72, 2.02, 8.64, repro,
1996-10-01,0.99, 3.09, -2.31, 2.79, 2.11, 8.91, repro,
1996-10-02,-0.06, 1.82, -10.54, 2.68, 1.98, 8.43, repro,
1996-10-03,-2.28, 1.54, -9.95, 2.73, 2.06, 8.83, repro,
1996-10-04,-1.30, 1.94, -4.14, 2.78, 2.09, 8.99, repro,
1996-10-05,-0.29, 2.32, -2.47, 2.73, 2.03, 8.73, repro,
1996-10-06,-0.49, 1.95, -4.59, 2.75, 2.09, 8.86, repro,
1996-10-07,1.02, 3.44, -6.53, 2.71, 2.03, 8.78, repro,
1996-10-08,1.20, 1.99, -2.09, 2.78, 2.04, 8.83, repro,
1996-10-09,1.97, 2.48, -7.54, 2.75, 2.00, 8.72, repro,
1996-10-10,-1.93, 3.07, -4.49, 2.63, 1.93, 8.32, repro,
1996-10-11,-0.26, 1.98, 0.41, 2.63, 1.95, 8.36, repro,
1996-10-12,0.58, 2.88, -3.46, 2.71, 2.07, 8.92, repro,
1996-10-13,-0.82, 3.02, -6.76, 2.69, 2.03, 8.70, repro,
1996-10-14,-0.79, 2.83, -0.48, 2.70, 2.05, 8.84, repro,
1996-10-15,1.52, 0.97, 1.77, 2.78, 2.09, 9.10, repro,
1996-10-16,-0.03, 0.87, -5.98, 3.21, 2.45, 10.43, repro,
1996-10-17,0.13, 2.64, -5.65, 2.64, 2.00, 8.64, repro,
1996-10-18,-3.70, 4.09, -10.37, 2.47, 1.85, 8.36, repro,
1996-10-19,-1.17, 0.41, -7.50, 2.55, 1.90, 8.39, repro,
1996-10-20,-2.66, 0.29, -6.94, 2.50, 1.87, 8.34, repro,
1996-10-21,0.68, 1.82, -11.45, 2.68, 2.00, 8.71, repro,
1996-10-22,6.39, 7.81, 5.64, 2.67, 2.02, 8.80, repro,
1996-10-23,-0.19, 1.25, 3.06, 2.62, 1.94, 8.55, repro,
1996-10-24,-1.08, 1.33, -3.10, 2.53, 1.88, 8.42, repro,
1996-10-25,-0.73, 1.29, -4.63, 2.72, 2.05, 9.04, repro,
1996-10-26,-0.44, 1.99, -10.08, 2.67, 2.00, 8.63, repro,
1996-10-27,0.39, 2.14, -13.64, 2.59, 1.94, 8.39, repro,
1996-10-28,-1.40, 0.84, -10.91, 2.71, 1.97, 8.54, repro,
1996-10-29,-1.94, 0.08, -7.04, 2.51, 1.87, 8.31, repro,
1996-10-30,0.35, 1.58, -20.23, 2.61, 1.89, 8.45, repro,
1996-10-31,-0.48, 0.60, -8.61, 2.73, 2.02, 8.88, repro,
1996-11-01,0.89, 2.08, -14.15, 2.66, 1.97, 8.48, repro,
1996-11-02,-1.73, 1.05, -11.61, 2.77, 2.03, 8.70, repro,
1996-11-03,-2.46, 0.28, -6.40, 2.68, 1.98, 8.56, repro,
1996-11-04,-0.83, -0.10, -10.16, 3.20, 2.24, 9.74, repro,
1996-11-05,-2.79, 0.86, -6.73, 2.78, 2.03, 8.74, repro,
1996-11-06,-1.09, -1.21, -3.55, 2.88, 2.12, 9.09, repro,
1996-11-07,-1.82, 0.93, -11.35, 3.15, 2.21, 9.67, repro,
1996-11-08,-5.90, -1.20, -18.69, 2.81, 2.08, 9.60, repro,
1996-11-09,0.53, -1.54, -9.39, 3.08, 2.34, 10.08, repro,
1996-11-10,1.91, 1.44, -12.40, 2.86, 2.10, 8.79, repro,
1996-11-11,-5.57, -0.56, -18.62, 2.98, 2.10, 9.48, repro,
1996-11-12,-2.55, 1.30, -26.43, 2.74, 2.03, 8.85, repro,
1996-11-13,0.33, 1.68, -14.17, 2.82, 2.10, 8.81, repro,
1996-11-14,-0.44, 0.63, -7.42, 2.85, 2.06, 8.91, repro,
1996-11-15,-0.70, 0.12, -12.54, 3.04, 2.28, 9.66, repro,
1996-11-16,0.08, 1.78, -7.46, 3.09, 2.28, 9.78, repro,
1996-11-17,-1.93, 1.41, -9.83, 3.28, 2.30, 10.05, repro,
1996-11-18,-0.65, 0.62, -15.49, 3.45, 2.41, 10.45, repro,
1996-11-19,-0.44, 0.00, -17.88, 3.26, 2.40, 10.05, repro,
1996-11-20,-0.91, 0.95, -6.95, 2.94, 2.15, 9.05, repro,
1996-11-21,0.04, 0.87, -11.79, 2.93, 2.14, 8.98, repro,
1996-11-22,1.24, 0.80, -17.79, 3.00, 2.18, 9.60, repro,
1996-11-23,-1.17, 2.20, -14.79, 2.94, 2.16, 9.45, repro,
1996-11-24,-1.16, 2.55, -14.01, 2.91, 2.16, 9.12, repro,
1996-11-25,-2.48, 0.80, -23.45, 3.20, 2.24, 9.72, repro,
1996-11-26,-3.01, 0.17, -20.27, 2.90, 2.18, 9.29, repro,
1996-11-27,4.77, -8.17, -25.88, 3.08, 2.15, 9.34, repro,
1996-11-28,-14.55, 1.51, 11.33, 2.81, 2.11, 9.43, repro,
1996-11-29,-3.33, -7.21, 10.12, 3.29, 2.38, 10.27, repro,
1996-11-30,-7.02, -4.72, 14.18, 3.39, 2.31, 10.08, repro,
1996-12-01,-6.39, -12.35, -5.49, 2.90, 2.13, 9.08, repro,
1996-12-02,-11.52, -11.37, -2.62, 3.14, 2.22, 9.66, repro,
1996-12-03,-12.74, -13.51, -9.54, 2.93, 2.12, 9.01, repro,
1996-12-04,-11.28, -12.69, -11.64, 3.14, 2.22, 9.70, repro,
1996-12-05,-13.43, -16.57, -32.08, 3.89, 2.55, 11.00, repro,
1996-12-06,-15.17, -11.42, -42.16, 3.42, 2.41, 10.44, repro,
1996-12-07,-15.09, -12.07, -40.29, 3.03, 2.22, 9.68, repro,
1996-12-08,-14.50, -11.59, -58.41, 3.11, 2.20, 9.52, repro,
1996-12-09,-11.66, -11.49, -67.36, 3.36, 2.29, 10.19, repro,
1996-12-10,-15.30, -10.26, -63.37, 3.23, 2.16, 9.72, repro,
1996-12-11,-18.60, -12.25, -77.22, 2.87, 2.08, 8.90, repro,
1996-12-12,-23.11, -11.13, -88.45, 2.90, 2.18, 9.05, repro,
1996-12-13,-24.64, -12.09, -80.87, 2.92, 2.18, 9.20, repro,
1996-12-14,-26.92, -9.30, -78.79, 2.99, 2.16, 9.39, repro,
1996-12-15,-29.52, -11.52, -75.93, 2.94, 2.16, 9.36, repro,
1996-12-16,-26.66, -11.08, -75.67, 3.01, 2.14, 9.29, repro,
1996-12-17,-29.65, -9.19, -72.64, 3.18, 2.23, 9.70, repro,
1996-12-18,-31.26, -10.28, -62.31, 2.85, 2.13, 9.21, repro,
1996-12-19,-33.67, -9.21, -59.76, 3.04, 2.28, 9.81, repro,
1996-12-20,-34.36, -8.71, -89.49, 3.17, 2.25, 10.05, repro,
1996-12-21,-32.29, -9.31, -84.19, 2.99, 2.16, 9.36, repro,
1996-12-22,-32.44, -7.25, -75.31, 2.88, 2.12, 9.11, repro,
1996-12-23,-32.20, -5.93, -88.17, 3.04, 2.18, 9.69, repro,
1996-12-24,-33.48, -6.62, -90.71, 3.07, 2.16, 9.64, repro,
1996-12-25,-33.87, -6.03, -96.83, 3.08, 2.19, 9.79, repro,
1996-12-26,-32.91, -5.94, -88.64, 3.06, 2.19, 9.75, repro,
1996-12-27,-33.17, -5.48, -80.47, 3.23, 2.20, 10.03, repro,
1996-12-28,-34.31, -4.16, -83.91, 3.24, 2.28, 10.45, repro,
1996-12-29,-33.15, -4.07, -77.31, 3.80, 2.80, 13.24, repro,
1996-12-30,-37.35, -3.42, -76.47, 3.42, 2.39, 11.06, repro,
1996-12-31,-28.75, -4.05, -52.16, 3.23, 2.28, 10.39, repro,
1997-01-01,-4.09, 2.01, -10.67, 2.98, 2.23, 9.71, repro,
1997-01-02,-2.33, 3.19, -13.41, 2.96, 2.24, 10.03, repro,
1997-01-03,-1.59, 3.17, -23.33, 2.95, 2.22, 9.79, repro,
1997-01-04,-1.84, 2.27, -24.36, 2.90, 2.17, 9.50, repro,
1997-01-05,-3.75, 2.98, -31.24, 3.31, 2.43, 11.15, repro,
1997-01-06,-3.13, 2.99, -28.22, 3.23, 2.32, 10.63, repro,
1997-01-07,-9.15, 4.82, -24.52, 2.91, 2.10, 9.54, repro,
1997-01-08,-3.71, -0.10, -21.15, 2.82, 2.08, 9.35, repro,
1997-01-09,-1.80, 3.07, -22.46, 3.13, 2.31, 10.62, repro,
1997-01-10,-3.27, 0.80, -28.50, 2.82, 2.05, 9.15, repro,
1997-01-11,-1.70, 1.10, -26.52, 2.78, 2.02, 8.97, repro,
1997-01-12,-2.19, 0.10, -31.19, 2.90, 2.09, 9.42, repro,
1997-01-13,-0.93, -0.53, -26.59, 2.91, 2.21, 9.89, repro,
1997-01-14,-0.86, 0.75, -29.85, 3.11, 2.45, 10.75, repro,
1997-01-15,0.41, 1.02, -37.72, 2.82, 2.13, 9.59, repro,
1997-01-16,-1.97, -0.79, -32.12, 2.99, 2.37, 10.61, repro,
1997-01-17,1.05, -0.34, -32.55, 3.05, 2.21, 10.20, repro,
1997-01-18,-1.04, -1.66, -31.01, 2.91, 2.22, 10.02, repro,
1997-01-19,2.11, -5.94, -43.87, 3.13, 2.40, 10.23, repro,
1997-01-20,-0.62, 0.46, -28.91, 2.74, 1.99, 9.08, repro,
1997-01-21,-0.33, 0.13, -22.37, 2.88, 2.11, 9.46, repro,
1997-01-22,1.26, 0.05, -27.88, 3.02, 2.23, 10.06, repro,
1997-01-23,-0.28, 2.18, -27.67, 2.93, 2.17, 9.85, repro,
1997-01-24,-2.39, 1.86, -30.18, 2.88, 2.22, 9.58, repro,
1997-01-25,0.06, 0.38, -31.56, 3.23, 2.30, 10.65, repro,
1997-01-26,0.47, 2.45, -37.07, 2.83, 2.13, 9.42, repro,
1997-01-27,0.77, 0.91, -36.35, 3.37, 2.38, 10.38, repro,
1997-01-28,-1.79, 2.83, -38.91, 2.87, 2.13, 9.64, repro,
1997-01-29,-2.74, -0.10, -34.65, 2.83, 2.03, 9.21, repro,
1997-01-30,4.48, 4.00, -22.66, 2.83, 2.09, 9.08, repro,
1997-01-31,-1.64, 0.26, -22.25, 2.80, 2.05, 9.12, repro,
1997-02-01,-0.51, 2.14, -24.89, 2.65, 1.92, 8.54, repro,
1997-02-24,0.68, 1.99, -43.70, 2.87, 2.15, 9.39, repro,
1997-02-25,-1.51, 0.11, -35.24, 2.79, 2.03, 9.00, repro,
1997-02-26,-1.47, -1.40, -27.33, 3.00, 2.15, 9.62, repro,
1997-02-27,-1.16, 1.76, -23.80, 3.18, 2.29, 10.00, repro,
1997-02-28,-2.85, 0.16, -26.91, 3.26, 2.34, 10.48, repro,
1997-03-01,-0.94, 2.63, -24.40, 3.11, 2.25, 9.96, repro,
1997-03-02,-3.42, 3.03, -38.06, 2.85, 2.04, 9.25, repro,
1997-03-03,-2.91, 1.19, -23.22, 2.86, 2.08, 9.42, repro,
1997-03-04,0.37, -2.18, -34.03, 2.99, 2.17, 9.90, repro,
1997-03-05,-0.08, 0.10, -17.25, 3.04, 2.23, 9.57, repro,
1997-03-06,-3.04, 2.73, -19.68, 2.90, 2.14, 9.52, repro,
1997-03-07,0.47, 0.84, -28.86, 2.79, 2.02, 9.01, repro,
1997-03-08,-0.91, 3.99, -37.84, 2.79, 2.07, 9.07, repro,
1997-03-09,-5.76, 2.81, -32.03, 3.09, 2.28, 9.94, repro,
1997-03-10,-4.34, -3.38, -43.44, 2.92, 2.16, 9.48, repro,
1997-03-11,-3.02, -0.83, -35.76, 3.26, 2.41, 10.94, repro,
1997-03-12,-3.19, -0.90, -37.38, 3.15, 2.16, 10.00, repro,
1997-03-13,-1.17, 0.17, -44.07, 2.92, 2.21, 9.77, repro,
1997-03-15,-2.44, 0.29, -28.40, 2.78, 2.01, 9.36, repro,
1997-03-16,-0.85, 0.96, -26.64, 2.66, 1.94, 8.44, repro,
1997-03-17,-2.77, -0.34, -27.13, 2.60, 1.90, 8.68, repro,
1997-03-18,-5.56, 3.93, -14.71, 2.74, 2.01, 8.98, repro,
1997-03-19,-1.38, 2.24, -30.72, 2.67, 1.97, 8.62, repro,
1997-03-20,-2.34, -2.00, -37.48, 2.57, 1.87, 8.55, repro,
1997-03-21,-3.36, -0.38, -38.83, 2.68, 2.00, 9.00, repro,
1997-03-22,-2.45, -1.24, -36.64, 2.69, 2.00, 8.85, repro,
1997-03-23,-1.02, -1.07, -33.64, 2.55, 1.86, 8.40, repro,
1997-03-24,-2.31, 0.13, -23.72, 2.77, 2.03, 9.60, repro,
1997-03-25,-2.32, -1.71, -27.82, 2.61, 1.94, 8.57, repro,
1997-03-26,-2.20, -1.75, -27.76, 3.06, 2.32, 10.58, repro,
1997-03-27,-0.77, 3.78, -26.66, 2.76, 2.03, 8.95, repro,
1997-03-28,0.07, 1.50, -26.71, 2.59, 1.87, 8.52, repro,
1997-03-29,2.92, 7.02, -20.66, 2.58, 1.87, 8.45, repro,
1997-03-30,2.67, 1.84, -26.26, 2.56, 1.85, 8.42, repro,
1997-03-31,-2.79, -1.06, -30.69, 2.71, 2.01, 9.02, repro,
1997-04-01,-1.50, -1.28, -40.37, 2.59, 1.88, 8.62, repro,
1997-04-02,-1.33, 0.19, -33.12, 2.84, 2.05, 9.15, repro,
1997-04-03,-3.45, -2.70, -37.26, 2.61, 1.87, 8.45, repro,
1997-04-04,-0.44, -0.29, -30.65, 2.73, 1.99, 8.78, repro,
1997-04-05,-1.44, -1.15, -35.13, 2.63, 1.95, 8.93, repro,
1997-04-06,2.09, 0.95, -30.66, 2.77, 2.04, 9.02, repro,
1997-04-07,-1.62, -1.42, -34.24, 2.78, 2.07, 9.34, repro,
1997-04-08,-0.42, 1.35, -33.33, 2.77, 2.05, 8.83, repro,
1997-04-09,-0.76, 0.77, -34.33, 2.74, 2.05, 8.95, repro,
1997-04-10,0.28, 0.63, -39.41, 2.78, 2.09, 9.10, repro,
1997-04-11,-1.23, -1.04, -38.62, 2.56, 1.88, 8.52, repro,
1997-04-12,-1.89, 0.16, -31.40, 2.68, 1.93, 8.64, repro,
1997-04-13,-1.74, -0.37, -37.54, 2.62, 1.94, 8.63, repro,
1997-04-14,-2.87, -0.67, -28.64, 2.66, 1.98, 8.74, repro,
1997-04-15,-0.16, 0.52, -20.54, 3.13, 2.22, 9.74, repro,
1997-04-16,-0.73, 2.55, -28.23, 2.75, 2.06, 8.95, repro,
1997-04-17,-4.25, 0.50, -30.64, 2.63, 1.93, 8.65, repro,
1997-04-18,-1.23, 0.93, -32.08, 2.78, 2.06, 9.03, repro,
1997-04-19,-3.58, -0.61, -32.40, 2.59, 1.89, 8.66, repro,
1997-04-20,-1.36, -0.19, -25.85, 2.68, 1.96, 8.68, repro,
1997-04-21,-1.99, 0.22, -42.01, 2.72, 2.02, 8.98, repro,
1997-04-22,-2.49, 1.21, -34.50, 2.66, 1.96, 8.76, repro,
1997-04-23,-1.02, 0.86, -28.83, 2.69, 1.98, 8.68, repro,
1997-04-24,-0.94, -0.33, -34.95, 2.67, 1.97, 8.72, repro,
1997-04-25,-0.46, 1.15, -29.39, 2.89, 2.14, 9.36, repro,
1997-04-26,-2.04, 0.63, -32.73, 2.74, 2.02, 8.92, repro,
1997-04-27,0.26, -2.56, -27.72, 2.58, 1.86, 8.48, repro,
1997-04-28,-2.90, -1.53, -20.82, 2.64, 1.92, 8.58, repro,
1997-04-29,-2.79, -0.46, -19.51, 2.71, 1.98, 8.76, repro,
1997-04-30,-2.00, 1.04, -24.19, 2.60, 1.91, 8.59, repro,
1997-05-01,-0.75, 0.61, -27.73, 2.74, 2.03, 8.95, repro,
1997-05-02,-1.99, -0.33, -34.50, 2.53, 1.81, 8.21, repro,
1997-05-03,-1.19, 0.70, -26.40, 2.70, 2.00, 8.78, repro,
1997-05-04,-0.78, -0.51, -24.30, 2.66, 1.95, 8.65, repro,
1997-05-05,-0.74, 0.52, -31.45, 2.78, 2.03, 8.80, repro,
1997-05-06,-2.94, -1.96, -28.35, 2.62, 1.89, 8.49, repro,
1997-05-07,0.40, 1.54, -31.77, 2.68, 2.00, 8.73, repro,
1997-05-08,-2.00, -0.07, -38.00, 2.69, 1.94, 8.70, repro,
1997-05-09,-0.24, -2.99, -32.96, 2.58, 1.90, 8.62, repro,
1997-05-10,-0.36, 0.92, -24.77, 2.85, 2.09, 9.14, repro,
1997-05-11,-0.67, -0.38, -31.03, 2.76, 1.96, 8.80, repro,
1997-05-12,-0.63, -1.31, -32.93, 2.55, 1.83, 8.36, repro,
1997-05-13,-2.33, -2.73, -21.09, 2.54, 1.83, 8.30, repro,
1997-05-14,-3.27, -1.31, -27.01, 2.55, 1.85, 8.37, repro,
1997-05-15,-0.29, -2.64, -16.35, 2.59, 1.89, 8.56, repro,
1997-05-16,-1.01, -3.88, -24.97, 2.66, 1.90, 8.72, repro,
1997-05-17,-0.52, -1.53, -28.87, 2.59, 1.92, 8.73, repro,
1997-05-18,-0.75, -1.53, -32.51, 2.54, 1.84, 8.33, repro,
1997-05-19,-2.97, -0.43, -23.44, 2.71, 2.05, 9.20, repro,
1997-05-20,-1.48, -0.83, -23.19, 2.68, 1.99, 9.08, repro,
1997-05-21,-1.53, -1.21, -25.26, 2.65, 1.94, 8.69, repro,
1997-05-22,-0.24, -0.33, -31.96, 2.58, 1.91, 8.56, repro,
1997-05-23,-0.46, -0.00, -28.92, 2.71, 1.96, 8.76, repro,
1997-05-24,-3.10, -2.52, -21.99, 2.52, 1.88, 8.45, repro,
1997-05-25,1.75, -1.14, -29.75, 2.53, 1.89, 8.43, repro,
1997-05-26,-1.31, -0.90, -24.62, 2.65, 1.91, 8.65, repro,
1997-05-27,-1.94, -1.39, -27.02, 2.62, 1.92, 8.71, repro,
1997-05-28,-1.18, -2.01, -24.33, 2.53, 1.85, 8.38, repro,
1997-05-29,-0.18, -1.36, -22.78, 2.54, 1.86, 8.39, repro,
1997-05-30,-3.13, -1.33, -22.27, 2.75, 1.97, 8.89, repro,
1997-05-31,-1.45, -0.09, -24.61, 3.03, 2.31, 10.34, repro,
1997-06-01,-2.31, -3.04, -32.45, 2.66, 1.90, 8.73, repro,
1997-06-02,-2.01, -1.96, -23.23, 2.56, 1.88, 8.61, repro,
1997-06-03,-0.56, -0.07, -27.60, 2.57, 1.89, 8.52, repro,
1997-06-04,-1.44, -0.97, -22.44, 2.61, 1.91, 8.67, repro,
1997-06-05,-0.24, -1.64, -26.23, 2.55, 1.84, 8.41, repro,
1997-06-06,-1.62, -1.87, -14.84, 2.58, 1.87, 8.52, repro,
1997-06-07,-0.97, -0.25, -9.24, 2.57, 1.90, 9.01, repro,
1997-06-08,-0.76, -1.16, -25.09, 2.60, 1.92, 8.64, repro,
1997-06-09,-0.63, -1.12, -25.71, 2.64, 1.96, 8.76, repro,
1997-06-10,-0.87, -1.42, -23.36, 2.70, 2.03, 9.07, repro,
1997-06-11,-1.91, -0.76, -21.26, 2.65, 1.94, 8.68, repro,
1997-06-12,0.54, -1.43, -22.69, 2.65, 1.93, 8.64, repro,
1997-06-13,0.80, -1.06, -20.58, 2.62, 1.88, 8.65, repro,
1997-06-14,-0.31, -0.57, -29.22, 2.65, 1.93, 8.64, repro,
1997-06-15,-2.41, -1.14, -20.35, 2.52, 1.86, 8.39, repro,
1997-06-16,-1.75, -1.08, -20.91, 2.53, 1.85, 8.42, repro,
1997-06-17,-2.37, -0.87, -29.31, 2.64, 1.89, 8.75, repro,
1997-06-18,-1.81, 1.04, -26.86, 2.54, 1.84, 8.36, repro,
1997-06-19,1.81, 0.09, -24.12, 2.59, 1.89, 8.51, repro,
1997-06-20,1.22, -0.58, -22.02, 2.89, 2.16, 9.39, repro,
1997-06-21,-1.48, -2.15, -26.08, 2.53, 1.87, 8.50, repro,
1997-06-22,-0.01, -1.73, -16.98, 2.71, 1.92, 8.77, repro,
1997-06-23,-0.55, -0.89, -26.41, 2.53, 1.84, 8.36, repro,
1997-06-24,-1.40, 0.10, -24.71, 2.66, 2.00, 8.84, repro,
1997-06-25,-1.57, 1.87, -23.44, 2.57, 1.91, 8.65, repro,
1997-06-26,-2.20, -1.15, -21.25, 2.54, 1.88, 8.46, repro,
1997-06-27,-2.01, -1.16, -17.68, 2.83, 2.03, 9.15, repro,
1997-06-28,-0.98, -2.81, -19.53, 2.58, 1.93, 8.59, repro,
1997-06-29,-1.76, -2.92, -14.20, 2.55, 1.86, 8.62, repro,
1997-06-30,-1.21, -1.42, -20.38, 2.53, 1.84, 8.39, repro,
1997-07-01,-0.18, -1.81, -16.16, 2.70, 1.94, 8.98, repro,
1997-07-02,-0.89, -0.95, -16.66, 2.60, 1.91, 8.61, repro,
1997-07-03,-0.23, -0.06, -20.47, 2.53, 1.84, 8.35, repro,
1997-07-04,-0.69, -2.70, -20.07, 2.53, 1.84, 8.39, repro,
1997-07-05,-3.01, -1.72, -17.97, 2.81, 1.97, 9.10, repro,
1997-07-06,-2.69, -0.73, -17.26, 2.52, 1.87, 8.45, repro,
1997-07-07,-2.61, -1.42, -16.73, 2.50, 1.84, 8.35, repro,
1997-07-08,-1.75, -1.53, -19.61, 2.59, 1.89, 8.61, repro,
1997-07-09,2.37, -2.95, -17.17, 2.56, 1.89, 8.50, repro,
1997-07-10,-1.15, -2.45, -17.36, 2.62, 1.89, 8.71, repro,
1997-07-11,-1.07, -2.20, -19.77, 2.63, 1.97, 9.08, repro,
1997-07-12,-2.55, -2.63, -18.79, 2.56, 1.88, 8.67, repro,
1997-07-13,-1.13, -1.60, -30.14, 2.50, 1.84, 8.33, repro,
1997-07-14,-1.26, -2.87, -17.81, 2.58, 1.90, 8.71, repro,
1997-07-15,0.03, -1.36, -19.14, 2.62, 1.88, 8.69, repro,
1997-07-16,2.28, -3.76, -23.02, 2.70, 1.95, 8.81, repro,
1997-07-17,-1.74, -3.06, -20.81, 2.65, 1.93, 8.83, repro,
1997-07-18,0.30, -0.80, -24.83, 2.52, 1.87, 8.47, repro,
1997-07-19,-0.51, -1.98, -22.93, 2.64, 1.95, 8.86, repro,
1997-07-20,-0.61, -0.55, -14.69, 2.59, 1.85, 8.44, repro,
1997-07-21,-0.26, 2.66, -14.15, 2.55, 1.88, 8.50, repro,
1997-07-22,-0.25, -2.95, -18.40, 2.80, 2.04, 9.17, repro,
1997-07-23,-1.61, 0.22, -20.17, 2.72, 1.97, 9.09, repro,
1997-07-24,-1.89, 0.23, -20.65, 2.62, 1.95, 8.89, repro,
1997-07-25,0.27, -2.02, -19.73, 2.60, 1.89, 8.68, repro,
1997-07-26,-1.49, -1.83, -20.61, 2.79, 2.00, 9.15, repro,
1997-07-27,-1.09, -2.96, -16.79, 2.59, 1.89, 8.69, repro,
1997-07-28,-0.91, -3.85, -13.73, 2.54, 1.87, 8.44, repro,
1997-07-29,-2.65, -2.39, -18.73, 2.66, 1.92, 8.70, repro,
1997-07-30,-2.05, -0.34, -11.21, 2.61, 1.91, 8.68, repro,
1997-07-31,-0.05, 0.72, -17.74, 2.68, 1.95, 8.89, repro,
1997-08-01,-0.50, -2.02, -16.32, 2.69, 1.95, 8.99, repro,
1997-08-02,-0.80, -1.07, -8.58, 2.53, 1.85, 8.41, repro,
1997-08-03,-3.19, -0.72, -12.56, 2.51, 1.86, 8.32, repro,
1997-08-04,-3.55, -2.74, -14.78, 2.58, 1.85, 8.44, repro,
1997-08-05,0.91, -3.38, -10.46, 2.56, 1.86, 8.50, repro,
1997-08-06,-1.90, -3.17, -27.61, 2.88, 2.04, 9.54, repro,
1997-08-07,-2.66, -1.13, -17.51, 2.61, 1.89, 8.62, repro,
1997-08-08,-0.44, -0.48, -14.97, 2.62, 1.89, 8.70, repro,
1997-08-09,-2.87, -0.44, -14.93, 2.57, 1.86, 8.40, repro,
1997-08-10,-2.25, -0.92, -15.05, 2.56, 1.87, 8.56, repro,
1997-08-11,-0.26, -2.86, -17.72, 2.52, 1.86, 8.39, repro,
1997-08-12,-0.17, -0.95, -23.23, 2.72, 1.92, 9.04, repro,
1997-08-13,0.88, -1.36, -13.19, 2.51, 1.87, 8.47, repro,
1997-08-14,-2.14, 0.90, -7.44, 2.60, 1.92, 8.77, repro,
1997-08-15,-1.63, 0.36, -7.65, 2.54, 1.89, 8.38, repro,
1997-08-16,0.13, -1.77, -12.03, 3.35, 2.26, 10.24, repro,
1997-08-17,-0.50, -2.32, -12.72, 2.75, 1.99, 9.17, repro,
1997-08-18,-0.85, -0.53, -8.23, 2.53, 1.87, 8.46, repro,
1997-08-19,-1.71, -1.17, -6.96, 2.64, 1.90, 8.81, repro,
1997-08-20,-3.06, -0.53, -14.03, 2.66, 1.91, 8.74, repro,
1997-08-21,-1.16, -1.97, -12.49, 2.58, 1.92, 8.70, repro,
1997-08-22,-2.13, -2.04, -14.73, 2.59, 1.86, 8.57, repro,
1997-08-23,-5.07, -0.53, -12.64, 2.66, 1.93, 8.95, repro,
1997-08-24,-2.41, -0.03, -4.13, 2.67, 2.02, 9.03, repro,
1997-08-25,-3.64, -0.03, -12.82, 2.72, 1.99, 9.14, repro,
1997-08-26,-2.95, -0.98, -10.84, 2.57, 1.92, 8.62, repro,
1997-08-27,-1.74, 0.41, -15.91, 2.54, 1.85, 8.41, repro,
1997-08-28,-1.45, -1.49, -7.85, 2.56, 1.85, 8.57, repro,
1997-08-29,-1.26, -1.12, -14.65, 2.54, 1.85, 8.33, repro,
1997-08-30,-2.92, -1.90, -12.96, 2.56, 1.88, 8.53, repro,
1997-08-31,-1.77, -0.43, -11.84, 2.61, 1.90, 8.63, repro,
1997-09-01,-3.33, -0.82, -3.49, 2.60, 1.91, 8.65, repro,
1997-09-02,-2.19, 0.16, -18.61, 2.53, 1.84, 8.36, repro,
1997-09-03,-1.01, 1.25, -8.47, 2.57, 1.91, 8.40, repro,
1997-09-04,-1.76, 1.37, -5.07, 2.61, 1.95, 8.49, repro,
1997-09-05,-2.12, -0.50, -18.41, 2.56, 1.91, 8.55, repro,
1997-09-06,-1.69, 0.92, -15.87, 2.52, 1.86, 8.40, repro,
1997-09-07,-2.40, -0.59, -9.28, 2.60, 1.93, 8.62, repro,
1997-09-08,-2.12, -0.67, -1.06, 3.17, 2.18, 9.91, repro,
1997-09-09,-2.78, -1.21, -3.24, 2.57, 1.94, 8.83, repro,
1997-09-10,-0.60, -1.99, -3.17, 2.61, 1.97, 8.81, repro,
1997-09-11,-3.10, 0.89, 0.46, 2.64, 1.91, 8.81, repro,
1997-09-12,-0.61, -1.30, -4.98, 2.62, 1.88, 8.58, repro,
1997-09-13,-1.18, -0.85, -9.35, 2.52, 1.85, 8.33, repro,
1997-09-14,-1.06, 0.28, -4.40, 2.53, 1.85, 8.38, repro,
1997-09-15,-2.21, 1.01, -2.21, 2.58, 1.94, 8.60, repro,
1997-09-16,-1.66, -1.16, -7.44, 2.86, 2.24, 9.96, repro,
1997-09-17,-3.67, -0.34, -9.69, 2.50, 1.84, 8.30, repro,
1997-09-18,-1.81, -0.88, -10.90, 2.62, 1.96, 8.73, repro,
1997-09-19,-0.78, -0.47, -13.35, 2.61, 1.92, 8.58, repro,
1997-09-20,-1.95, -0.56, -16.64, 2.64, 2.00, 8.83, repro,
1997-09-21,0.25, 0.01, -20.02, 2.52, 1.88, 8.37, repro,
1997-09-22,-1.92, 0.21, -12.33, 2.63, 1.98, 8.82, repro,
1997-09-23,-1.74, -0.18, -11.12, 2.55, 1.84, 8.28, repro,
1997-09-24,-1.11, 0.50, -11.41, 2.53, 1.85, 8.35, repro,
1997-09-25,-4.37, -0.98, 4.32, 2.86, 2.07, 9.33, repro,
1997-09-26,-2.08, -0.18, -6.59, 2.62, 1.91, 8.54, repro,
1997-09-27,-0.36, -1.27, -11.11, 2.69, 2.01, 9.07, repro,
1997-09-28,-1.28, -0.22, -13.98, 2.67, 1.97, 8.86, repro,
1997-09-29,-0.58, 0.05, -4.19, 2.72, 1.98, 8.78, repro,
1997-09-30,-1.92, 0.33, 4.29, 2.56, 1.91, 8.45, repro,
1997-10-01,-2.19, 1.60, -0.76, 2.58, 1.91, 8.60, repro,
1997-10-02,-2.54, -0.36, -6.32, 2.59, 1.91, 8.64, repro,
1997-10-03,-3.30, 0.34, -5.47, 2.62, 1.94, 8.65, repro,
1997-10-04,-1.36, -1.19, -1.96, 2.70, 1.99, 8.98, repro,
1997-10-05,-1.74, -1.24, -5.90, 2.57, 1.92, 8.53, repro,
1997-10-06,-2.10, -1.75, -6.77, 2.53, 1.85, 8.33, repro,
1997-10-07,-0.93, -0.79, -11.49, 2.58, 1.88, 8.67, repro,
1997-10-08,-3.07, -0.38, -7.52, 2.54, 1.86, 8.49, repro,
1997-10-09,-1.86, -1.03, -4.85, 2.55, 1.87, 8.52, repro,
1997-10-10,-2.81, -1.63, -10.80, 2.53, 1.86, 8.49, repro,
1997-10-11,-1.29, 0.02, -8.83, 2.57, 1.93, 8.56, repro,
1997-10-12,-1.23, -2.24, -10.82, 2.57, 1.88, 8.48, repro,
1997-10-13,-0.98, -1.74, -20.32, 2.66, 1.94, 8.71, repro,
1997-10-15,-2.80, -2.61, -15.09, 2.70, 1.93, 8.66, repro,
1997-10-16,-1.47, -2.11, -15.78, 2.62, 1.90, 8.75, repro,
1997-10-17,-2.62, -0.40, -11.58, 2.89, 2.05, 9.39, repro,
1997-10-18,0.30, -0.36, -16.02, 2.69, 1.96, 8.74, repro,
1997-10-19,1.51, 0.21, -29.11, 2.70, 2.01, 9.02, repro,
1997-10-20,-0.08, -1.46, -21.54, 2.82, 2.03, 9.18, repro,
1997-10-21,-0.70, -0.92, -17.49, 2.78, 2.03, 9.20, repro,
1997-10-22,-0.66, -1.99, -7.55, 2.73, 1.99, 9.02, repro,
1997-10-23,-0.91, -1.45, -9.13, 2.76, 1.99, 8.92, repro,
1997-10-24,1.10, -0.89, -20.59, 2.76, 1.98, 8.91, repro,
1997-10-25,1.26, -0.28, -19.34, 2.91, 2.08, 9.33, repro,
1997-10-26,-0.48, -2.29, -12.46, 2.67, 1.93, 8.65, repro,
1997-10-27,-1.40, 0.58, -16.48, 2.88, 2.04, 9.32, repro,
1997-10-28,-0.88, -2.01, -14.98, 2.82, 2.03, 9.14, repro,
1997-10-29,1.98, -3.17, -11.46, 2.72, 2.03, 9.22, repro,
1997-10-30,-2.08, -4.05, -11.89, 2.71, 2.05, 9.21, repro,
1997-10-31,-1.11, -4.37, -19.25, 2.83, 2.09, 9.37, repro,
1997-11-01,0.60, -1.99, -18.86, 2.74, 1.98, 8.84, repro,
1997-11-02,-1.11, -3.18, -17.32, 2.72, 1.98, 9.11, repro,
1997-11-03,-2.01, -2.49, -3.97, 3.21, 2.42, 10.68, repro,
1997-11-05,-2.31, -2.89, -18.40, 3.06, 2.23, 9.99, repro,
1997-11-06,-0.95, -1.01, -22.26, 3.16, 2.20, 9.93, repro,
1997-11-07,-0.42, -1.38, -19.34, 3.02, 2.15, 9.68, repro,
1997-11-08,0.71, -1.33, -21.94, 2.72, 2.00, 8.80, repro,
1997-11-09,-0.80, 0.55, -22.51, 2.78, 2.02, 8.91, repro,
1997-11-10,-0.06, -2.14, -15.80, 2.67, 2.04, 9.22, repro,
1997-11-11,0.11, -1.86, -4.26, 2.90, 2.08, 9.64, repro,
1997-11-12,-1.89, -3.02, -12.80, 2.78, 1.99, 8.89, repro,
1997-11-13,-0.71, -1.01, -7.23, 2.75, 2.02, 8.91, repro,
1997-11-14,-0.14, -2.83, -16.54, 2.78, 1.99, 8.97, repro,
1997-11-15,0.27, -2.23, -21.49, 2.78, 2.01, 8.93, repro,
1997-11-16,-0.24, -3.23, -11.02, 2.78, 2.03, 9.08, repro,
1997-11-17,0.48, -1.71, -13.97, 3.00, 2.21, 10.16, repro,
1997-11-19,-0.68, -1.42, -10.70, 3.05, 2.16, 9.98, repro,
1997-11-20,-1.22, -2.39, -5.67, 2.98, 2.15, 9.86, repro,
1997-11-21,-1.73, -2.34, -15.38, 3.26, 2.30, 10.30, repro,
1997-11-22,2.44, -1.33, -17.68, 3.22, 2.23, 10.05, repro,